{"data":{"norad_id":62885,"epoch":"2026-05-25T04:45:20.218752Z","epoch_age_seconds":57136,"freshness":"FRESH","line1":"1 62885U 25024G   26145.19815068  .00281572  00000+0  21170-2 0  9995","line2":"2 62885  43.0001  79.9051 0001569 245.3185 114.7519 15.70923029 75502","mean_motion":15.70923029,"eccentricity":0.0001569,"inclination_deg":43.0001,"raan_deg":79.9051,"arg_perigee_deg":245.3185,"mean_anomaly_deg":114.7519,"bstar":0.002117,"rev_number":7550,"period_min":91.665853349712,"perigee_km":355.20113306206,"apogee_km":357.31438613762,"semimajor_km":6734.3947595998,"source":"CELESTRAK","updated_at":"2026-05-25T13:38:19.789378Z"}}